Flag for U.S.A. Weather past 2 weeks in Aspen, Colorado, U.S.A.

Now
37 °F

Passing clouds.


Feels Like: 31 °F
Forecast: 39 / 58 °F
Wind: 8 mph from Southwest

Location: Aspen-Pitkin County Airport


UV Index: 5 (Moderate)

Visibility: 10 mi


Pressure: 29.96 "Hg

Humidity: 79%

Dew point: 31 °F

Location of AspenLocation

Historic Weather in Aspen

°F

Aspen temperature yesterday

Maximum temperature yesterday: 59 °F (at 3:53 PM)
Minimum temperature yesterday: 37 °F (at 3:53 AM)
Average temperature yesterday: 48 °F

Past Weeks' High & Low Weather Summary

 TemperatureHumidityPressure
High65 °F (Apr 18, 1:53 PM)97% (Apr 13, 7:53 AM)30.30 "Hg (Apr 13, 7:53 AM)
Low16 °F (Apr 14, 6:53 AM)11% (Apr 10, 2:53 PM)29.47 "Hg (Apr 13, 9:53 AM)
Average41 °F50%29.91 "Hg
* Reported Apr 5 4:53 AM — Apr 20 4:53 AM, Aspen, Weather by CustomWeather, © 2014

Note: Actual official high and low records may vary slightly from our data, if they occured in-between our weather recording intervals... More about our weather records

Advertising

Historic Weather Conditions — Data for Previous 24 hours

 ConditionsComfort  
Time TempWeatherWind HumidityBarometerVisibility
4:53 AM
Apr 20
37 °FPassing clouds.8 mph79%29.96 "Hg10 mi
3:53 AM38 °FPassing clouds.6 mph76%29.93 "Hg10 mi
2:53 AM38 °FClear.6 mph76%29.94 "Hg10 mi
1:53 AM40 °FPassing clouds.3 mph77%29.93 "Hg10 mi
12:53 AM41 °FOvercast.No wind76%29.93 "Hg10 mi
11:53 PM
Apr 19
43 °FOvercast.6 mph71%29.93 "Hg10 mi
10:53 PM43 °FOvercast.7 mph68%29.94 "Hg10 mi
9:53 PM45 °FPassing clouds.6 mph65%29.95 "Hg10 mi
8:53 PM48 °FPassing clouds.3 mph61%29.93 "Hg10 mi
7:53 PM51 °FMostly cloudy.8 mph54%29.90 "Hg10 mi
6:53 PM53 °FPartly sunny.5 mph47%29.89 "Hg10 mi
5:53 PM54 °FPartly sunny.12 mph40%29.87 "Hg10 mi
4:53 PM57 °FPartly sunny.12 mph34%29.84 "Hg10 mi
3:53 PM59 °FPassing clouds.No wind31%29.83 "Hg10 mi
2:53 PM56 °FLight rain. Partly sunny.13 mph46%29.86 "Hg10 mi
1:53 PM58 °FPartly sunny.3 mph36%29.84 "Hg10 mi
12:53 PM57 °FOvercast.8 mph39%29.84 "Hg10 mi
11:53 AM55 °FPartly sunny.3 mph42%29.85 "Hg10 mi
10:53 AM52 °FScattered clouds.6 mph47%29.88 "Hg10 mi
9:53 AM49 °FScattered clouds.No wind52%29.91 "Hg10 mi
8:53 AM45 °FOvercast.No wind53%29.93 "Hg10 mi
7:53 AM43 °FMore clouds than sun.No wind60%29.91 "Hg10 mi
6:53 AM39 °FOvercast.6 mph70%29.90 "Hg10 mi
5:53 AM37 °FPassing clouds.7 mph73%29.88 "Hg10 mi
Weather by CustomWeather, © 2014

See weather overview